Location: *
(38.4303°S, 157.0822°W)
Time: 15:43:42
(UTC+00:00)

Iridium 4 Rocket - Pass Details

Date: 21 May 2024
Orbit: 581 x 896 km, 86.9° (Epoch: 22 June)

Event Time Altitude Azimuth Distance (km) Brightness Sun altitude
Rises 16:46:59 0° 342° (NNW) 2,880 6.5 -8.4°
Reaches altitude 10° 16:49:12 10° 335° (NNW) 2,018 5.6 -8.0°
Maximum altitude 16:53:25 42° 263° (W) 968 3.6 -7.2°
Drops below altitude 10° 16:58:03 10° 192° (SSW) 2,219 5.6 -6.4°
Sets 17:00:36 0° 185° (S) 3,203 6.5 -5.9°
